[[{"header":{"parameterUnit":"m.s-1","parameterCategory":2,"la1":30.2991,"la2":30.254,"lo1":-89.0895,"lo2":-89.0444,"dy":0.0017,"dx":0.0017,"nx":28,"ny":28,"refTime":"2025-04-13T21:00:00:Z","depth":"0","parameterNumber":2,"parameterNumberName":"U-component_of_CURRENTS"},"data":[0,0,0,0,0,0,0,0,0,0,0,0,0,0,0,0,0,0,0,0,0,0,0,0,0,0,0,0,0,0,0,0,0,0,0,0,0,0,0,0,0,0,0,0,0,0,0,0,0,0,0,0,0,0,0,0,0,0,-0.0117,-0.0115,0,-0.0019,-0.0018,-0.0017,0.0032,0.0032,0.0033,0.0033,0.0088,0.0089,0.009,0,0,0,0,0,0,0,0,0,0,0,0,0,-0.0271,-0.0268,-0.0117,-0.0115,-0.0114,-0.0019,-0.0018,-0.0017,0.0032,0.0032,0.0033,0.0033,0.0087,0.0089,0.0091,0,0,0,0,0,0,0,0,0,0,0,0,0,-0.0193,-0.0267,-0.0117,-0.0077,-0.0072,-0.0019,-0.0018,-0.0016,0.0032,0.0032,0.0033,0.0033,0.0087,0.0089,0.0091,0.0097,0,0,0.0097,0.0097,0,0,0,0,0,0,0,0,-0.0198,-0.0188,-0.0084,-0.0079,-0.0074,-0.0004,-0.0052,0.002,0.0032,-0.0009,0.0033,0.0033,0.0054,0.0059,0.0075,0.01,0.0102,0.0097,0.0098,0.0099,0.0099,0,0,0,0,0,0,0,-0.0203,-0.0192,-0.008,-0.0083,-0.0076,-0.0067,-0.0056,-0.0038,0.0018,-0.0006,-0.0001,0.0012,0.0056,0.0073,0.0076,0.0103,0.0097,0.0098,0.01,0.01,0.0138,0.0138,0,0,0,0,0,0,-0.0211,-0.0196,-0.0083,-0.0077,-0.0134,-0.0064,-0.0052,-0.0028,0.0019,0.0027,0.0012,0.0014,0.0069,0.0074,0.0078,0.0099,0.0099,0.0101,0.0102,0.0138,0.0138,0.0138,0,0,0,0,0,0,-0.0214,-0.0201,-0.0087,-0.0134,-0.0118,-0.0062,-0.0035,-0.0026,-0.0009,0.0033,0.004,0.0019,0.007,0.0076,0.0092,0.0101,0.0101,0.0103,0.0138,0.0138,0.0138,0.0134,0,0,0,0,0,0,-0.0219,-0.0203,-0.0198,-0.0134,-0.0116,-0.0055,-0.0035,-0.0024,-0.0001,0.0003,0.0041,0.0047,0.007,0.0089,0.0094,0.0104,0.0105,0.0139,0.0138,0.0138,0.0134,0.0134,0.0133,0,0,0,0,0,-0.0225,-0.0212,-0.0198,-0.0185,-0.0107,-0.0055,-0.0045,-0.0006,-0.0001,0.0009,0.0029,0.0045,0.0091,0.009,0.0096,0.0107,0.0139,0.0138,0.0138,0.0135,0.0134,0.0133,0,0,0,0,0,0,-0.0284,-0.0204,-0.0187,-0.0154,-0.011,-0.0046,-0.0036,-0.0011,0.0014,0.0011,0.0044,0.0051,0.007,0.0083,0.0081,0.0115,0.0117,0.0118,0.0112,0.0112,0.0111,0.0089,0.0106,0,0,0,0,0,-0.0294,-0.0261,-0.0192,-0.0171,-0.0149,-0.0097,-0.0076,-0.0046,-0.001,0.0002,0.0028,0.0051,0.0073,0.0087,0.0107,0.0123,0.0116,0.0133,0.0132,0.0131,0.0116,0.0118,0.0116,0.0137,0.0137,0.0137,0,0,-0.0314,-0.0266,-0.025,-0.0182,-0.0148,-0.0113,-0.0084,-0.005,-0.0026,0.0001,0.0027,0.0048,0.0075,0.0099,0.0109,0.0112,0.0121,0.0131,0.0131,0.0115,0.0117,0.0115,0.0113,0.0136,0.0137,0.0137,0,0,-0.033,-0.0293,-0.0269,-0.0228,-0.0171,-0.0135,-0.0128,-0.0066,-0.0044,-0.0015,0.0009,0.0028,0.0067,0.0091,0.0107,0.0109,0.0115,0.012,0.0105,0.0108,0.0106,0.0104,0.0088,0.0084,0.0123,0.0123,0.0123,0,-0.0361,-0.031,-0.0259,-0.0223,-0.0193,-0.0147,-0.012,-0.0089,-0.0033,-0.0022,-0.0012,0.0036,0.0062,0.0089,0.0094,0.0109,0.0102,0.011,0.0107,0.0105,0.0103,0.0087,0.0083,0.0123,0.0123,0.0123,0.0123,0,-0.0348,-0.0311,-0.0296,-0.0232,-0.0201,-0.0169,-0.0114,-0.0094,-0.007,-0.0039,-0.0013,0.0021,0.0047,0.0066,0.0083,0.0091,0.0086,0.0104,0.0108,0.0101,0.0084,0.008,0.0123,0.0123,0.0123,0.0123,0,0,-0.0386,-0.0305,-0.0298,-0.027,-0.0199,-0.017,-0.0142,-0.0098,-0.0087,-0.0046,-0.0032,0.001,0.002,0.0036,0.0064,0.007,0.0058,0.0079,0.0079,0.0061,0.0046,0.0044,0.004,0.0079,0.0079,0.0078,0.0037,0,-0.0387,-0.0341,-0.0294,-0.0252,-0.0216,-0.0171,-0.0151,-0.0113,-0.0082,-0.0061,-0.003,-0.0009,0.0013,0.0023,0.0033,0.0054,0.0049,0.0066,0.0056,0.0055,0.0054,0.0036,0.0041,0.0006,0.0034,0.0033,0.0033,0,-0.0365,-0.0338,-0.0307,-0.025,-0.0235,-0.0214,-0.0177,-0.0149,-0.0113,-0.0094,-0.0071,-0.0047,-0.0031,-0.0012,0.0,0.001,0.0016,0.0029,0.0029,0.0022,0.0047,0.0019,-0.0002,0.0027,0.0028,0.0028,0.0028,0,-0.0385,-0.0331,-0.0316,-0.0292,-0.0237,-0.0227,-0.0205,-0.0166,-0.0143,-0.0118,-0.011,-0.0086,-0.0074,-0.0062,-0.0032,-0.0021,-0.0025,-0.0002,-0.0004,-0.0005,-0.0007,-0.0006,-0.0004,-0.0011,-0.0011,-0.0011,-0.001,0,-0.0364,-0.0333,-0.0331,-0.031,-0.0299,-0.0257,-0.0236,-0.0212,-0.0183,-0.0157,-0.0135,-0.0118,-0.0087,-0.0073,-0.0053,-0.0044,-0.0044,-0.0024,-0.0016,-0.0008,-0.0008,0.0012,0.0001,-0.0012,-0.0012,-0.0011,-0.0011,0,-0.0319,-0.0329,-0.0299,-0.0292,-0.0294,-0.0278,-0.0241,-0.0222,-0.0211,-0.0179,-0.0176,-0.0148,-0.0134,-0.0108,-0.0086,-0.0073,-0.0063,-0.0057,-0.006,-0.0052,-0.003,-0.0043,-0.0116,-0.0091,-0.008,-0.008,-0.008,0,-0.0265,-0.0261,-0.029,-0.0298,-0.0284,-0.0268,-0.0253,-0.0231,-0.0202,-0.0188,-0.0171,-0.0167,-0.0141,-0.0129,-0.0113,-0.0104,-0.0077,-0.0089,-0.0064,-0.0044,-0.0052,-0.0085,-0.006,-0.0073,-0.0073,-0.0074,-0.0074,0,-0.0168,-0.0211,-0.0214,-0.0255,-0.0258,-0.0235,-0.0214,-0.02,-0.0173,-0.0166,-0.0148,-0.0144,-0.0148,-0.014,-0.0139,-0.0116,-0.0093,-0.0092,-0.0063,-0.0053,-0.0099,-0.0064,-0.0043,-0.0075,-0.0075,-0.0075,-0.0075,-0.0075,-0.0108,-0.0117,-0.0181,-0.0201,-0.021,-0.0196,-0.016,-0.0144,-0.0117,-0.0094,-0.0116,-0.0119,-0.0146,-0.0149,-0.0133,-0.01,-0.012,-0.0064,-0.0086,-0.0124,-0.0091,-0.0086,-0.0106,-0.0107,-0.0107,-0.0107,-0.0107,0,-0.0049,-0.0096,-0.0117,-0.0158,-0.0148,-0.0166,-0.0127,-0.0088,-0.005,-0.0073,-0.0068,-0.012,-0.0121,-0.0129,-0.013,-0.0099,-0.0087,-0.0058,-0.0087,-0.0059,-0.004,-0.0024,-0.0037,-0.0037,-0.0037,-0.0037,-0.0037,-0.0037,-0.0037,-0.0072,-0.0104,-0.0103,-0.0113,-0.0068,-0.0038,0.0,0.0003,-0.0021,-0.0069,-0.0115,-0.0173,-0.0211,-0.015,-0.0099,-0.0061,-0.009,-0.006,-0.0021,-0.0022,-0.0023,-0.0007,-0.0016,-0.0016,-0.0054,-0.0055,-0.0055]},{"header":{"parameterUnit":"m.s-1","parameterCategory":2,"la1":30.2991,"la2":30.254,"lo1":-89.0895,"lo2":-89.0444,"dy":0.0017,"dx":0.0017,"nx":28,"ny":28,"refTime":"2025-04-13T21:00:00:Z","depth":"0","parameterNumber":3,"parameterNumberName":"V-component_of_CURRENTS"},"data":[0,0,0,0,0,0,0,0,0,0,0,0,0,0,0,0,0,0,0,0,0,0,0,0,0,0,0,0,0,0,0,0,0,0,0,0,0,0,0,0,0,0,0,0,0,0,0,0,0,0,0,0,0,0,0,0,0,0,0.012,0.0119,0,0.0087,0.0087,0.0087,0.0073,0.0073,0.0073,0.0073,0.0022,0.0021,0.002,0,0,0,0,0,0,0,0,0,0,0,0,0,0.0165,0.0165,0.012,0.0119,0.0119,0.0087,0.0087,0.0086,0.0073,0.0073,0.0073,0.0073,0.0023,0.0021,0.002,0,0,0,0,0,0,0,0,0,0,0,0,0,0.0142,0.0164,0.012,0.0107,0.0106,0.0087,0.0087,0.0086,0.0073,0.0073,0.0073,0.0073,0.0023,0.0021,0.0019,0.0009,0,0,0.0013,0.0013,0,0,0,0,0,0,0,0,0.0143,0.014,0.011,0.0108,0.0106,0.0083,0.0084,0.0059,0.0073,0.0087,0.0073,0.0073,0.004,0.0036,0.0033,0.0007,0.0005,0.0013,0.0012,0.0011,0.0011,0,0,0,0,0,0,0,0.0145,0.0142,0.0109,0.0109,0.0107,0.0101,0.0098,0.0079,0.0065,0.0086,0.0084,0.0078,0.0039,0.0035,0.0032,0.0004,0.0013,0.0012,0.001,0.001,-0.0028,-0.0028,0,0,0,0,0,0,0.0146,0.0143,0.011,0.0107,0.0123,0.01,0.0096,0.0092,0.0066,0.0062,0.0078,0.0078,0.0038,0.0034,0.003,0.0008,0.0011,0.0009,0.0008,-0.0028,-0.0028,-0.0028,0,0,0,0,0,0,0.0147,0.0143,0.0111,0.0123,0.0118,0.0099,0.0094,0.0091,0.0085,0.006,0.0056,0.0075,0.0038,0.0032,0.0009,0.0006,0.0009,0.0007,-0.0029,-0.0028,-0.0028,-0.003,0,0,0,0,0,0,0.0149,0.0144,0.0143,0.0123,0.0118,0.0099,0.0094,0.009,0.0081,0.008,0.0056,0.0051,0.0038,0.0012,0.0007,0.0004,0.0005,-0.0029,-0.0028,-0.0028,-0.003,-0.003,-0.003,0,0,0,0,0,0.015,0.0146,0.0143,0.0139,0.0116,0.0099,0.0096,0.0083,0.0081,0.0078,0.006,0.0052,0.0011,0.001,0.0004,0.0,-0.0029,-0.0029,-0.0028,-0.003,-0.003,-0.003,0,0,0,0,0,0,0.0164,0.0144,0.014,0.013,0.0116,0.0096,0.009,0.0084,0.0068,0.0065,0.0046,0.004,0.0017,0.0012,0.0012,-0.0007,-0.0007,-0.0008,-0.0007,-0.0007,-0.0006,-0.0003,0.0004,0,0,0,0,0,0.0167,0.016,0.014,0.0133,0.0125,0.0109,0.0101,0.0092,0.0075,0.0068,0.0052,0.0036,0.0015,0.0007,-0.0012,-0.0024,-0.0024,-0.0026,-0.0026,-0.0026,-0.0026,-0.003,-0.0031,-0.0027,-0.0027,-0.0027,0,0,0.0169,0.0158,0.0154,0.0136,0.0124,0.011,0.0104,0.0091,0.008,0.0064,0.0046,0.003,0.0011,-0.0007,-0.0016,-0.0012,-0.0025,-0.0026,-0.0026,-0.0026,-0.003,-0.0031,-0.0031,-0.0027,-0.0027,-0.0027,0,0,0.0167,0.0162,0.0152,0.0142,0.0123,0.0112,0.0108,0.0089,0.0081,0.0063,0.0046,0.0033,0.0006,-0.0006,-0.0017,-0.0023,-0.0029,-0.0028,-0.0022,-0.0026,-0.0027,-0.0027,-0.002,-0.002,-0.0022,-0.0022,-0.0022,0,0.0167,0.0155,0.0148,0.0135,0.0124,0.0113,0.0098,0.0089,0.0066,0.0056,0.0058,0.002,0.0009,-0.0017,-0.0017,-0.0023,-0.0025,-0.0024,-0.0026,-0.0027,-0.0027,-0.002,-0.002,-0.0022,-0.0022,-0.0022,-0.0022,0,0.0158,0.0146,0.0139,0.0121,0.0112,0.0097,0.0082,0.0074,0.0067,0.0056,0.0032,0.0018,-0.0002,-0.0005,-0.0014,-0.0026,-0.0026,-0.0031,-0.0029,-0.0028,-0.002,-0.002,-0.0022,-0.0022,-0.0022,-0.0022,0,0,0.0133,0.0133,0.0125,0.0118,0.0101,0.009,0.0078,0.0056,0.0044,0.0035,0.0018,-0.0001,-0.0005,-0.0015,-0.0027,-0.0024,-0.0022,-0.0027,-0.0028,-0.0022,-0.0028,-0.0028,-0.0027,-0.0034,-0.0034,-0.0034,-0.0018,0,0.0116,0.0102,0.0104,0.0083,0.0069,0.0065,0.0053,0.0039,0.0029,0.0014,0.0006,-0.0014,-0.0011,-0.0021,-0.0019,-0.0027,-0.0023,-0.0025,-0.0027,-0.0027,-0.0029,-0.0028,-0.0011,0.0003,-0.0018,-0.0018,-0.0018,0,0.008,0.0081,0.0066,0.006,0.0053,0.0045,0.0024,0.0016,-0.0001,-0.0009,-0.0021,-0.0031,-0.0034,-0.0029,-0.0029,-0.0034,-0.0029,-0.0027,-0.0027,-0.0027,-0.0027,-0.0002,0.0005,0.0045,-0.0018,-0.0018,-0.0018,0,0.0042,0.0039,0.0032,0.0029,0.0028,0.0021,0.002,0.0005,-0.0007,-0.0021,-0.0031,-0.0041,-0.0047,-0.0041,-0.0035,-0.0033,-0.0035,-0.0029,-0.0024,-0.0023,-0.0009,-0.0007,0.0034,-0.0028,-0.0028,-0.0028,-0.0028,0,-0.0006,-0.002,0.0019,0.0007,0.0004,0.0008,-0.0009,-0.0012,-0.0026,-0.0045,-0.0042,-0.0062,-0.0052,-0.0055,-0.0041,-0.0033,-0.0037,-0.0022,-0.0022,-0.0008,-0.0006,0.0029,0.0062,-0.0028,-0.0028,-0.0028,-0.0028,0,-0.0071,-0.0051,-0.0049,-0.0025,-0.0019,-0.0019,-0.0018,-0.0027,-0.0039,-0.0061,-0.0066,-0.0079,-0.0077,-0.0067,-0.006,-0.0043,0.0003,-0.0031,-0.001,-0.0008,0.0045,0.0077,0.0141,0.0175,-0.0008,-0.0008,-0.0008,0,-0.0106,-0.0109,-0.0063,-0.0044,-0.0034,-0.0029,-0.0027,-0.0035,-0.0046,-0.0077,-0.0088,-0.0099,-0.0109,-0.009,-0.0063,-0.0033,0.0003,-0.0005,0.0006,0.0052,0.0087,0.0122,0.0149,0.0031,0.0032,0.0032,0.0032,0,-0.0146,-0.012,-0.0095,-0.0058,-0.0041,-0.0034,-0.0033,-0.005,-0.0066,-0.0088,-0.0117,-0.0126,-0.0115,-0.0077,-0.0043,-0.0029,0.0054,0.0002,0.0043,0.0118,0.0165,0.0197,0.0025,0.0035,0.0035,0.0035,0.0034,0.0034,-0.0145,-0.0123,-0.007,-0.0043,-0.0027,-0.0026,-0.0028,-0.0038,-0.0059,-0.0077,-0.0115,-0.0103,-0.0064,-0.0011,-0.0001,0.0063,0.0079,0.0094,0.0129,0.0158,0.0194,0.0032,0.0041,0.0041,0.0041,0.0041,0.0041,0,-0.0108,-0.0082,-0.0055,-0.0012,-0.0004,-0.0003,-0.0015,-0.0011,-0.0028,-0.0044,-0.0063,-0.0002,0.0044,0.0086,0.0165,0.02,0.0218,0.0214,0.0272,0.0293,0.0139,0.0142,0.0181,0.0181,0.0181,0.0181,0.0181,0.0181,-0.008,-0.003,-0.0018,0.0015,0.0026,0.0041,0.0036,0.0042,0.0042,0.0072,0.0109,0.0114,0.0178,0.0313,0.0368,0.0349,0.0406,0.0395,0.0428,0.0322,0.0313,0.0305,0.0314,0.0389,0.039,0.058,0.0582,0.0583]}],[{"header":{"parameterUnit":"m.s-1","parameterCategory":2,"la1":30.2991,"la2":30.254,"lo1":-89.0895,"lo2":-89.0444,"dy":0.0017,"dx":0.0017,"nx":28,"ny":28,"refTime":"2025-04-13T21:00:00:Z","depth":"2","parameterNumber":2,"parameterNumberName":"U-component_of_CURRENTS"},"data":[0,0,0,0,0,0,0,0,0,0,0,0,0,0,0,0,0,0,0,0,0,0,0,0,0,0,0,0,0,0,0,0,0,0,0,0,0,0,0,0,0,0,0,0,0,0,0,0,0,0,0,0,0,0,0,0,0,0,-0.0446,-0.0445,0,-0.0362,-0.0362,-0.0361,-0.0321,-0.0321,-0.032,-0.032,-0.0293,-0.0292,-0.0292,0,0,0,0,0,0,0,0,0,0,0,0,0,-0.056,-0.0558,-0.0446,-0.0445,-0.0443,-0.0362,-0.0362,-0.0361,-0.0321,-0.0321,-0.032,-0.032,-0.0293,-0.0293,-0.0292,0,0,0,0,0,0,0,0,0,0,0,0,0,-0.0501,-0.0558,-0.0447,-0.0411,-0.0406,-0.0362,-0.0362,-0.0361,-0.0321,-0.0321,-0.032,-0.032,-0.0293,-0.0293,-0.0292,-0.0298,0,0,-0.029,-0.029,0,0,0,0,0,0,0,0,-0.0504,-0.0497,-0.0417,-0.0413,-0.0408,-0.0348,-0.0391,-0.0341,-0.0321,-0.0358,-0.032,-0.0319,-0.0314,-0.0312,-0.0302,-0.0297,-0.0296,-0.029,-0.029,-0.0289,-0.0289,0,0,0,0,0,0,0,-0.0508,-0.05,-0.0417,-0.0416,-0.041,-0.0394,-0.0386,-0.0382,-0.0344,-0.0355,-0.0351,-0.0335,-0.0313,-0.0303,-0.0301,-0.0296,-0.029,-0.029,-0.0289,-0.0289,-0.0275,-0.0275,0,0,0,0,0,0,-0.0511,-0.0504,-0.042,-0.0414,-0.0451,-0.0392,-0.0383,-0.0371,-0.0343,-0.0336,-0.0335,-0.0333,-0.0304,-0.0302,-0.03,-0.0281,-0.0289,-0.0289,-0.0289,-0.0275,-0.0275,-0.0275,0,0,0,0,0,0,-0.0514,-0.0505,-0.0423,-0.0454,-0.0442,-0.0391,-0.0378,-0.037,-0.0351,-0.0327,-0.0322,-0.0323,-0.0304,-0.0301,-0.0289,-0.0281,-0.0289,-0.0288,-0.0275,-0.0275,-0.0275,-0.0259,0,0,0,0,0,0,-0.0518,-0.0506,-0.0501,-0.0454,-0.044,-0.0395,-0.0377,-0.0368,-0.034,-0.0337,-0.0315,-0.0312,-0.0303,-0.029,-0.0289,-0.028,-0.0288,-0.0275,-0.0275,-0.0275,-0.0259,-0.0258,-0.0257,0,0,0,0,0,-0.0522,-0.0516,-0.0501,-0.049,-0.0433,-0.0395,-0.0387,-0.0351,-0.034,-0.0333,-0.0317,-0.0312,-0.0289,-0.029,-0.0288,-0.0279,-0.0275,-0.0275,-0.0275,-0.026,-0.0259,-0.0257,0,0,0,0,0,0,-0.0567,-0.0509,-0.0492,-0.047,-0.0433,-0.0386,-0.0378,-0.035,-0.0331,-0.033,-0.0311,-0.0308,-0.0292,-0.0293,-0.0294,-0.0276,-0.0282,-0.0282,-0.0271,-0.027,-0.0269,-0.0282,-0.0287,0,0,0,0,0,-0.0573,-0.0547,-0.0498,-0.0479,-0.0468,-0.0424,-0.0404,-0.0375,-0.0348,-0.0338,-0.0318,-0.0305,-0.0293,-0.0287,-0.0277,-0.0271,-0.028,-0.0265,-0.0264,-0.0263,-0.0274,-0.027,-0.0269,-0.0275,-0.0275,-0.0275,0,0,-0.0584,-0.0548,-0.0534,-0.0485,-0.0463,-0.0439,-0.0413,-0.0382,-0.0364,-0.0341,-0.0322,-0.03,-0.029,-0.0276,-0.027,-0.0274,-0.0268,-0.0263,-0.0262,-0.0274,-0.027,-0.0269,-0.0269,-0.0275,-0.0275,-0.0275,0,0,-0.0591,-0.0568,-0.0551,-0.0524,-0.0477,-0.0449,-0.0439,-0.039,-0.0378,-0.0353,-0.0329,-0.0309,-0.0289,-0.0277,-0.027,-0.0265,-0.0261,-0.0251,-0.0257,-0.0252,-0.0252,-0.0252,-0.0269,-0.027,-0.0252,-0.0252,-0.0252,0,-0.0606,-0.0573,-0.0542,-0.0521,-0.05,-0.0455,-0.0438,-0.042,-0.0367,-0.0356,-0.035,-0.0306,-0.0296,-0.0277,-0.0268,-0.0263,-0.026,-0.0259,-0.0251,-0.0251,-0.025,-0.0268,-0.027,-0.0252,-0.0252,-0.0252,-0.0252,0,-0.0598,-0.0573,-0.0567,-0.0523,-0.0503,-0.0479,-0.0447,-0.0422,-0.04,-0.037,-0.0346,-0.0328,-0.0301,-0.0289,-0.0276,-0.026,-0.0258,-0.0246,-0.0252,-0.0249,-0.0268,-0.027,-0.025,-0.0251,-0.0251,-0.0251,0,0,-0.0616,-0.057,-0.0566,-0.0546,-0.05,-0.0479,-0.0463,-0.0426,-0.042,-0.0375,-0.036,-0.0333,-0.0309,-0.0302,-0.0278,-0.0271,-0.0268,-0.0252,-0.0252,-0.0268,-0.0263,-0.0263,-0.0266,-0.0238,-0.0238,-0.0239,-0.0279,0,-0.0615,-0.0586,-0.0562,-0.053,-0.0511,-0.0477,-0.0471,-0.0435,-0.0419,-0.0395,-0.0365,-0.0345,-0.0321,-0.0303,-0.029,-0.027,-0.027,-0.0259,-0.0266,-0.0267,-0.0266,-0.0267,-0.0256,-0.029,-0.0281,-0.0281,-0.0281,0,-0.0599,-0.058,-0.0564,-0.0528,-0.0523,-0.0503,-0.0482,-0.0467,-0.0433,-0.0422,-0.0387,-0.0363,-0.0335,-0.032,-0.0303,-0.0288,-0.0278,-0.0269,-0.027,-0.028,-0.0271,-0.0292,-0.0294,-0.0285,-0.0284,-0.0284,-0.0284,0,-0.0603,-0.0571,-0.0561,-0.0547,-0.0513,-0.0504,-0.0484,-0.0466,-0.0456,-0.0428,-0.0415,-0.0386,-0.0365,-0.0346,-0.0317,-0.0307,-0.0302,-0.0294,-0.0294,-0.0294,-0.0296,-0.0296,-0.0292,-0.0292,-0.0292,-0.0292,-0.0292,0,-0.0585,-0.0559,-0.0561,-0.0547,-0.0535,-0.0515,-0.0506,-0.0487,-0.0466,-0.0446,-0.0423,-0.0406,-0.0364,-0.0346,-0.0328,-0.0317,-0.0315,-0.0304,-0.0302,-0.029,-0.029,-0.0291,-0.0291,-0.0293,-0.0293,-0.0293,-0.0293,0,-0.0539,-0.0552,-0.0525,-0.0523,-0.0526,-0.0508,-0.0488,-0.0479,-0.0476,-0.0448,-0.0431,-0.0408,-0.0393,-0.0367,-0.0346,-0.0337,-0.0328,-0.0321,-0.0319,-0.0316,-0.0328,-0.0326,-0.035,-0.0351,-0.0351,-0.0351,-0.0351,0,-0.0495,-0.0488,-0.0506,-0.0509,-0.0497,-0.0481,-0.0473,-0.0466,-0.0452,-0.0447,-0.0422,-0.0411,-0.0391,-0.0379,-0.0362,-0.0358,-0.0331,-0.034,-0.0327,-0.0337,-0.0333,-0.0331,-0.0329,-0.0329,-0.0329,-0.0329,-0.0329,0,-0.041,-0.0436,-0.0433,-0.0454,-0.0453,-0.0441,-0.0426,-0.0419,-0.0411,-0.0407,-0.0396,-0.0393,-0.0394,-0.0382,-0.0377,-0.0362,-0.0344,-0.0341,-0.0346,-0.0311,-0.0319,-0.0314,-0.0312,-0.0329,-0.0329,-0.0329,-0.0329,-0.0329,-0.035,-0.0343,-0.0382,-0.0387,-0.0395,-0.0392,-0.0371,-0.0367,-0.0353,-0.0348,-0.0365,-0.0379,-0.0391,-0.0393,-0.0364,-0.0341,-0.0364,-0.0345,-0.0345,-0.0344,-0.0329,-0.0336,-0.0349,-0.0349,-0.0349,-0.0349,-0.035,0,-0.029,-0.0308,-0.0311,-0.0336,-0.033,-0.035,-0.0336,-0.0325,-0.0308,-0.0328,-0.0332,-0.0356,-0.0362,-0.0364,-0.0348,-0.0343,-0.0326,-0.0311,-0.0295,-0.0297,-0.0298,-0.0279,-0.0286,-0.0285,-0.0285,-0.0285,0,0,-0.027,-0.0273,-0.0286,-0.0278,-0.0287,-0.0269,-0.0257,-0.0259,-0.027,-0.0293,-0.0319,-0.0364,-0.039,-0.0356,-0.0335,-0.0309,-0.0293,-0.0289,-0.0346,-0.033,-0.033,-0.0328,-0.0303,0,0,0,0,0]},{"header":{"parameterUnit":"m.s-1","parameterCategory":2,"la1":30.2991,"la2":30.254,"lo1":-89.0895,"lo2":-89.0444,"dy":0.0017,"dx":0.0017,"nx":28,"ny":28,"refTime":"2025-04-13T21:00:00:Z","depth":"2","parameterNumber":3,"parameterNumberName":"V-component_of_CURRENTS"},"data":[0,0,0,0,0,0,0,0,0,0,0,0,0,0,0,0,0,0,0,0,0,0,0,0,0,0,0,0,0,0,0,0,0,0,0,0,0,0,0,0,0,0,0,0,0,0,0,0,0,0,0,0,0,0,0,0,0,0,0.0153,0.0152,0,0.0116,0.0116,0.0115,0.0103,0.0103,0.0103,0.0103,0.0062,0.0061,0.006,0,0,0,0,0,0,0,0,0,0,0,0,0,0.0198,0.0197,0.0153,0.0152,0.0152,0.0116,0.0116,0.0115,0.0103,0.0103,0.0103,0.0103,0.0062,0.0061,0.006,0,0,0,0,0,0,0,0,0,0,0,0,0,0.0173,0.0197,0.0153,0.0139,0.0138,0.0116,0.0116,0.0115,0.0103,0.0103,0.0103,0.0103,0.0063,0.0061,0.006,0.0052,0,0,0.0055,0.0054,0,0,0,0,0,0,0,0,0.0175,0.0172,0.0142,0.014,0.0138,0.0112,0.0117,0.0093,0.0103,0.0118,0.0103,0.0102,0.0077,0.0074,0.0071,0.005,0.0048,0.0055,0.0054,0.0053,0.0053,0,0,0,0,0,0,0,0.0177,0.0173,0.014,0.0141,0.0139,0.013,0.0127,0.0112,0.01,0.0117,0.0115,0.0108,0.0076,0.0072,0.007,0.0048,0.0055,0.0054,0.0053,0.0052,0.0006,0.0005,0,0,0,0,0,0,0.0178,0.0175,0.0142,0.0139,0.0154,0.0129,0.0126,0.0122,0.01,0.0096,0.0108,0.0107,0.0075,0.0071,0.0068,0.0046,0.0053,0.0052,0.0051,0.0006,0.0006,0.0005,0,0,0,0,0,0,0.0179,0.0175,0.0143,0.0154,0.0149,0.0128,0.0125,0.0122,0.0115,0.0093,0.009,0.0105,0.0075,0.007,0.0046,0.0044,0.0051,0.005,0.0006,0.0006,0.0005,0.0008,0,0,0,0,0,0,0.018,0.0176,0.0176,0.0155,0.0149,0.013,0.0124,0.0121,0.011,0.0109,0.0089,0.0085,0.0074,0.0048,0.0045,0.0042,0.0049,0.0007,0.0006,0.0006,0.0008,0.0008,0.0007,0,0,0,0,0,0.0182,0.0181,0.0176,0.0172,0.0148,0.013,0.0127,0.0113,0.011,0.0107,0.0088,0.0086,0.0043,0.0047,0.0042,0.004,0.0007,0.0006,0.0006,0.0009,0.0008,0.0007,0,0,0,0,0,0,0.0198,0.0178,0.0173,0.0165,0.0149,0.0127,0.0122,0.0113,0.0097,0.0094,0.0077,0.0072,0.005,0.0044,0.0049,0.0025,0.0027,0.0025,0.003,0.003,0.0029,0.0035,0.0047,0,0,0,0,0,0.0201,0.0197,0.0175,0.0168,0.0162,0.0143,0.0134,0.0123,0.0104,0.0097,0.0082,0.0064,0.0044,0.0036,0.0018,0.0004,0.0007,0.0001,0.0001,0.0,0.0002,-0.0002,-0.0003,0.0003,0.0003,0.0003,0,0,0.0204,0.0193,0.019,0.0171,0.016,0.0146,0.0139,0.0124,0.0112,0.0095,0.0077,0.0059,0.0038,0.0019,0.0011,0.0015,0.0001,-0.0001,-0.0001,0.0001,-0.0003,-0.0003,-0.0004,0.0003,0.0003,0.0003,0,0,0.0203,0.02,0.0194,0.0183,0.0163,0.0149,0.0145,0.0123,0.0116,0.0095,0.0076,0.0059,0.0032,0.0018,0.0007,-0.0006,-0.0005,-0.0013,-0.0007,-0.0012,-0.0012,-0.0012,-0.0002,-0.0001,-0.0009,-0.0009,-0.0009,0,0.0204,0.0194,0.0188,0.0179,0.0169,0.015,0.0139,0.0128,0.0099,0.009,0.0091,0.0046,0.0035,0.0006,0.0002,-0.0006,-0.0007,-0.0003,-0.0012,-0.0012,-0.0012,-0.0001,-0.0001,-0.0009,-0.0009,-0.0009,-0.0009,0,0.0199,0.019,0.0186,0.0168,0.0161,0.0146,0.013,0.0117,0.0107,0.0092,0.0066,0.0048,0.0023,0.0018,0.0006,-0.0008,-0.0007,-0.0015,-0.0008,-0.0013,-0.0001,-0.0,-0.0009,-0.0009,-0.0009,-0.0009,0,0,0.0183,0.0182,0.0176,0.017,0.0153,0.0141,0.0128,0.0104,0.0093,0.0074,0.0057,0.0032,0.0024,0.0011,-0.0005,-0.0005,-0.0001,-0.001,-0.0011,0.0005,-0.0004,-0.0001,0.0,-0.0016,-0.0016,-0.0016,0.0009,0,0.017,0.016,0.0162,0.0143,0.0132,0.0124,0.0112,0.0093,0.0083,0.0063,0.0046,0.0023,0.002,0.0007,0.0005,-0.0007,-0.0002,-0.0007,-0.0005,-0.0005,0.0001,0.0,0.002,0.0043,0.0009,0.0009,0.001,0,0.0146,0.0145,0.0135,0.0127,0.0123,0.0111,0.0092,0.0083,0.0058,0.005,0.0031,0.0015,0.0001,0.0003,-0.0001,-0.0008,-0.0003,-0.0003,-0.0003,-0.0001,-0.0001,0.004,0.0045,0.0011,0.0011,0.0011,0.001,0,0.012,0.0116,0.011,0.0108,0.0101,0.0094,0.0087,0.0072,0.0063,0.004,0.0028,0.001,-0.0004,-0.0001,-0.0003,-0.0002,-0.0005,-0.0001,0.001,0.0011,0.0028,0.0031,0.0002,0.0002,0.0002,0.0002,0.0002,0,0.0087,0.0074,0.0099,0.0089,0.0085,0.0084,0.0072,0.0065,0.0045,0.0029,0.0019,-0.0001,-0.0008,-0.0015,-0.0006,0.0002,-0.0004,0.0013,0.0014,0.003,0.0032,0.0002,0.0001,0.0003,0.0003,0.0003,0.0003,0,0.0043,0.0055,0.0055,0.0067,0.007,0.0069,0.0066,0.0058,0.0041,0.002,0.0008,-0.0015,-0.0019,-0.002,-0.0017,-0.0002,0.0007,0.0009,0.0035,0.0038,0.0033,0.0032,0.0042,0.0042,0.0042,0.0043,0.0043,0,0.0023,0.0017,0.0049,0.0062,0.0067,0.0068,0.0067,0.0053,0.0045,0.001,-0.0004,-0.0024,-0.0032,-0.0022,-0.0006,0.0019,0.0002,0.005,0.0059,0.0036,0.0035,0.0034,0.0033,0.0092,0.0092,0.0093,0.0093,0,-0.0003,0.0012,0.003,0.0055,0.0065,0.0074,0.0069,0.0056,0.0035,0.0016,-0.001,-0.002,-0.002,0.0009,0.0029,0.0042,0.0051,0.0061,0.0023,0.0073,0.0082,0.0082,0.008,0.0097,0.0097,0.0096,0.0096,0.0096,0.0001,0.0017,0.0049,0.0067,0.0079,0.0082,0.0086,0.0075,0.006,0.0046,0.0012,0.0023,0.0022,0.0078,0.0077,0.0081,0.0077,0.0097,0.0096,0.0094,0.0089,0.0098,0.0116,0.0116,0.0116,0.0115,0.0115,0,0.0024,0.0038,0.0057,0.0088,0.0095,0.0096,0.0094,0.0109,0.0104,0.0086,0.0078,0.0106,0.0123,0.0117,0.0138,0.0141,0.0138,0.0137,0.014,0.0137,0.0134,0.013,0.0168,0.0168,0.0168,0.0168,0,0,0.004,0.0072,0.0077,0.0101,0.0112,0.0137,0.0141,0.0167,0.017,0.0173,0.0178,0.0174,0.0155,0.0184,0.0171,0.0175,0.0156,0.0173,0.0133,0.0135,0.0132,0.0115,0.0107,0,0,0,0,0]}],[{"header":{"parameterUnit":"m.s-1","parameterCategory":2,"la1":30.2991,"la2":30.254,"lo1":-89.0895,"lo2":-89.0444,"dy":0.0017,"dx":0.0017,"nx":28,"ny":28,"refTime":"2025-04-13T21:00:00:Z","depth":"4","parameterNumber":2,"parameterNumberName":"U-component_of_CURRENTS"},"data":[0,0,0,0,0,0,0,0,0,0,0,0,0,0,0,0,0,0,0,0,0,0,0,0,0,0,0,0,0,0,0,0,0,0,0,0,0,0,0,0,0,0,0,0,0,0,0,0,0,0,0,0,0,0,0,0,0,0,-0.0777,-0.0777,0,-0.0833,-0.0833,-0.0834,-0.0867,-0.0867,-0.0867,-0.0867,-0.0977,-0.098,-0.0983,0,0,0,0,0,0,0,0,0,0,0,0,0,-0.0692,-0.0694,-0.0777,-0.0777,-0.0778,-0.0833,-0.0833,-0.0834,-0.0867,-0.0867,-0.0867,-0.0867,-0.0976,-0.098,-0.0983,0,0,0,0,0,0,0,0,0,0,0,0,0,-0.0737,-0.0694,-0.0776,-0.0801,-0.0803,-0.0832,-0.0833,-0.0834,-0.0867,-0.0867,-0.0867,-0.0867,-0.0975,-0.0979,-0.0984,-0.1007,0,0,-0.0997,-0.0999,0,0,0,0,0,0,0,0,-0.0734,-0.074,-0.0796,-0.0799,-0.0802,-0.0843,-0.0844,-0.0895,-0.0867,-0.0843,-0.0867,-0.0867,-0.0937,-0.0944,-0.0954,-0.1012,-0.1016,-0.0997,-0.1,-0.1001,-0.1003,0,0,0,0,0,0,0,-0.0731,-0.0738,-0.0799,-0.0797,-0.0801,-0.0807,-0.0813,-0.0854,-0.089,-0.0845,-0.0847,-0.0853,-0.0939,-0.095,-0.0957,-0.1018,-0.0997,-0.1001,-0.1003,-0.1005,-0.1152,-0.1154,0,0,0,0,0,0,-0.0724,-0.0735,-0.0797,-0.0801,-0.0768,-0.0808,-0.0816,-0.083,-0.0888,-0.0897,-0.0853,-0.0854,-0.0943,-0.0952,-0.0961,-0.1048,-0.1001,-0.1005,-0.1008,-0.1151,-0.1153,-0.1154,0,0,0,0,0,0,-0.0722,-0.073,-0.0795,-0.0768,-0.0777,-0.0809,-0.0825,-0.0831,-0.0856,-0.0893,-0.0903,-0.0874,-0.0943,-0.0955,-0.1013,-0.1051,-0.1007,-0.1011,-0.1149,-0.1152,-0.1153,-0.1186,0,0,0,0,0,0,-0.072,-0.0729,-0.0746,-0.0768,-0.0778,-0.0823,-0.0825,-0.0832,-0.0859,-0.0862,-0.0915,-0.0924,-0.0944,-0.1007,-0.1017,-0.1056,-0.1015,-0.1148,-0.115,-0.1153,-0.1183,-0.1189,-0.1194,0,0,0,0,0,-0.0717,-0.0739,-0.0746,-0.0754,-0.0798,-0.0824,-0.083,-0.0853,-0.086,-0.0876,-0.0913,-0.0923,-0.1031,-0.1011,-0.1024,-0.1064,-0.1146,-0.115,-0.1153,-0.1181,-0.1188,-0.1194,0,0,0,0,0,0,-0.0709,-0.0745,-0.0754,-0.0785,-0.0807,-0.083,-0.0849,-0.0861,-0.0902,-0.0913,-0.0942,-0.0955,-0.1018,-0.1035,-0.1013,-0.1113,-0.109,-0.1096,-0.1108,-0.1114,-0.112,-0.1159,-0.1018,0,0,0,0,0,-0.0715,-0.0744,-0.0769,-0.0794,-0.0806,-0.0829,-0.0846,-0.0862,-0.0895,-0.0913,-0.095,-0.0993,-0.1038,-0.1071,-0.1107,-0.1166,-0.1162,-0.1199,-0.1204,-0.1209,-0.1249,-0.1263,-0.1273,-0.1164,-0.1164,-0.1164,0,0,-0.0718,-0.0742,-0.0758,-0.0795,-0.0814,-0.0835,-0.0841,-0.0872,-0.0907,-0.0921,-0.0985,-0.1013,-0.1055,-0.1118,-0.1148,-0.1141,-0.1227,-0.1213,-0.1216,-0.1255,-0.1268,-0.1278,-0.1288,-0.1166,-0.1166,-0.1166,0,0,-0.0733,-0.076,-0.0786,-0.0805,-0.0838,-0.0853,-0.0864,-0.0899,-0.0936,-0.0995,-0.1013,-0.1059,-0.1133,-0.1166,-0.1193,-0.1251,-0.1249,-0.1269,-0.134,-0.1352,-0.1362,-0.137,-0.133,-0.1334,-0.1279,-0.1279,-0.1279,0,-0.0731,-0.0769,-0.0796,-0.082,-0.0834,-0.086,-0.088,-0.0925,-0.0978,-0.1013,-0.1023,-0.1129,-0.1157,-0.1234,-0.1271,-0.1264,-0.1265,-0.1309,-0.1359,-0.1368,-0.1376,-0.1333,-0.1338,-0.1281,-0.128,-0.128,-0.128,0,-0.0756,-0.079,-0.0805,-0.0843,-0.0863,-0.0887,-0.0934,-0.0989,-0.1031,-0.1059,-0.115,-0.1197,-0.1268,-0.1277,-0.1311,-0.139,-0.1366,-0.1353,-0.134,-0.1389,-0.134,-0.1344,-0.1283,-0.1283,-0.1282,-0.1282,0,0,-0.0721,-0.0808,-0.0807,-0.0831,-0.0876,-0.089,-0.0971,-0.1032,-0.1082,-0.1154,-0.1213,-0.1316,-0.135,-0.1388,-0.142,-0.1454,-0.1492,-0.1461,-0.146,-0.1417,-0.1501,-0.1337,-0.1324,-0.1502,-0.1504,-0.1506,-0.1425,0,-0.0724,-0.0775,-0.0817,-0.0853,-0.0875,-0.0934,-0.0996,-0.1059,-0.1127,-0.1191,-0.1264,-0.1325,-0.1389,-0.1432,-0.149,-0.1486,-0.1516,-0.1514,-0.1468,-0.1466,-0.1311,-0.1329,-0.1513,-0.1428,-0.1429,-0.143,-0.143,0,-0.0709,-0.0752,-0.079,-0.0867,-0.088,-0.0905,-0.0997,-0.106,-0.1164,-0.1229,-0.1328,-0.1375,-0.147,-0.1495,-0.1564,-0.157,-0.1577,-0.1561,-0.1556,-0.1409,-0.1312,-0.1384,-0.1438,-0.1437,-0.1437,-0.1436,-0.1436,0,-0.0639,-0.072,-0.0749,-0.0768,-0.0859,-0.0902,-0.0954,-0.1056,-0.1104,-0.1244,-0.1263,-0.1406,-0.1425,-0.1511,-0.1519,-0.1568,-0.1523,-0.1556,-0.1405,-0.139,-0.1547,-0.154,-0.1609,-0.1609,-0.1609,-0.161,-0.161,0,-0.0602,-0.0626,-0.0721,-0.073,-0.0766,-0.0848,-0.0898,-0.0997,-0.1091,-0.111,-0.1268,-0.1289,-0.144,-0.1432,-0.1497,-0.143,-0.1502,-0.1428,-0.1373,-0.1553,-0.1548,-0.1546,-0.154,-0.1607,-0.1607,-0.1608,-0.1608,0,-0.0517,-0.0581,-0.0611,-0.0705,-0.0728,-0.0745,-0.0829,-0.0876,-0.098,-0.101,-0.1048,-0.1171,-0.119,-0.1254,-0.1308,-0.132,-0.1309,-0.1261,-0.1391,-0.1342,-0.1186,-0.1183,-0.1139,-0.1132,-0.1127,-0.1123,-0.1119,0,-0.0492,-0.05,-0.0555,-0.0564,-0.0603,-0.0649,-0.0685,-0.0808,-0.0847,-0.0915,-0.0906,-0.0937,-0.1015,-0.0928,-0.1049,-0.1093,-0.1107,-0.1088,-0.1246,-0.1194,-0.1146,-0.1151,-0.1154,-0.1111,-0.111,-0.1108,-0.1107,0,-0.0443,-0.0448,-0.0467,-0.048,-0.05,-0.0533,-0.059,-0.0597,-0.0717,-0.077,-0.0762,-0.0793,-0.0759,-0.0844,-0.0826,-0.0887,-0.1114,-0.1036,-0.1051,-0.12,-0.116,-0.1118,-0.1128,-0.1089,-0.1091,-0.1093,-0.1094,0,-0.0397,-0.038,-0.0398,-0.0402,-0.0423,-0.0446,-0.0479,-0.0517,-0.0554,-0.0636,-0.0605,-0.0655,-0.0709,-0.0725,-0.0729,-0.0745,-0.0816,-0.0861,-0.0887,-0.0908,-0.088,-0.0799,-0.0575,0,0,0,0,0,-0.0369,-0.0347,-0.0341,-0.0349,-0.0367,-0.0396,-0.0441,-0.0486,-0.0548,-0.0509,-0.057,-0.0556,-0.0579,-0.0613,-0.0602,-0.068,-0.0835,-0.0668,-0.0904,-0.0989,-0.101,-0.1005,0,0,0,0,0,0,-0.0351,-0.0333,-0.0322,-0.0316,-0.0323,-0.0355,-0.039,-0.0432,-0.0429,-0.0477,-0.0489,-0.0519,-0.0552,-0.0568,-0.0587,-0.0599,-0.0739,-0.0698,-0.0696,-0.0977,-0.0996,-0.1013,-0.1015,0,0,0,0,0]},{"header":{"parameterUnit":"m.s-1","parameterCategory":2,"la1":30.2991,"la2":30.254,"lo1":-89.0895,"lo2":-89.0444,"dy":0.0017,"dx":0.0017,"nx":28,"ny":28,"refTime":"2025-04-13T21:00:00:Z","depth":"4","parameterNumber":3,"parameterNumberName":"V-component_of_CURRENTS"},"data":[0,0,0,0,0,0,0,0,0,0,0,0,0,0,0,0,0,0,0,0,0,0,0,0,0,0,0,0,0,0,0,0,0,0,0,0,0,0,0,0,0,0,0,0,0,0,0,0,0,0,0,0,0,0,0,0,0,0,0.0172,0.0173,0,0.0191,0.0191,0.0191,0.0197,0.0197,0.0197,0.0197,0.02,0.02,0.02,0,0,0,0,0,0,0,0,0,0,0,0,0,0.0131,0.0132,0.0172,0.0173,0.0173,0.0191,0.0191,0.0191,0.0197,0.0197,0.0197,0.0197,0.02,0.02,0.02,0,0,0,0,0,0,0,0,0,0,0,0,0,0.0148,0.0132,0.0172,0.018,0.0181,0.0191,0.0191,0.0191,0.0197,0.0197,0.0197,0.0197,0.02,0.02,0.02,0.0197,0,0,0.02,0.02,0,0,0,0,0,0,0,0,0.0147,0.0149,0.0178,0.0179,0.018,0.0194,0.0178,0.0193,0.0197,0.0189,0.0197,0.0197,0.0197,0.0198,0.0198,0.0197,0.0197,0.02,0.02,0.02,0.02,0,0,0,0,0,0,0,0.0146,0.0148,0.0178,0.0179,0.018,0.0179,0.0181,0.018,0.019,0.0189,0.019,0.0196,0.0198,0.0198,0.0198,0.0197,0.02,0.02,0.02,0.02,0.0157,0.0156,0,0,0,0,0,0,0.0148,0.0147,0.0177,0.0178,0.0166,0.018,0.0182,0.0187,0.019,0.0192,0.0195,0.0196,0.0198,0.0198,0.0198,0.0176,0.02,0.02,0.02,0.0159,0.0157,0.0156,0,0,0,0,0,0,0.0147,0.015,0.0176,0.0165,0.0168,0.018,0.0186,0.0188,0.0194,0.0196,0.0196,0.0201,0.0198,0.0198,0.0182,0.0177,0.02,0.02,0.016,0.0158,0.0157,0.0143,0,0,0,0,0,0,0.0146,0.015,0.0156,0.0165,0.0169,0.018,0.0186,0.0188,0.0198,0.0199,0.0201,0.0201,0.0198,0.0182,0.0182,0.0177,0.0199,0.0161,0.0159,0.0157,0.0145,0.0141,0.0138,0,0,0,0,0,0.0144,0.0155,0.0156,0.016,0.0177,0.018,0.0181,0.0189,0.0198,0.0196,0.0187,0.0201,0.0169,0.0181,0.0181,0.0176,0.0162,0.016,0.0157,0.0146,0.0142,0.0138,0,0,0,0,0,0,0.0148,0.0157,0.0159,0.0174,0.0174,0.0182,0.0189,0.0193,0.0186,0.0189,0.0188,0.0186,0.0169,0.017,0.0183,0.0155,0.0168,0.0165,0.0159,0.0155,0.0152,0.0173,0.0199,0,0,0,0,0,0.015,0.0155,0.0162,0.0173,0.0176,0.0182,0.0187,0.0191,0.0188,0.0187,0.0182,0.0174,0.0159,0.0155,0.0144,0.0132,0.0146,0.0128,0.0124,0.0121,0.0137,0.0134,0.0132,0.0148,0.0148,0.0148,0,0,0.0154,0.0161,0.0164,0.0173,0.0177,0.017,0.0185,0.0194,0.0185,0.0187,0.0173,0.0164,0.0151,0.0131,0.0125,0.0133,0.0122,0.0118,0.0116,0.0133,0.0131,0.013,0.0129,0.0146,0.0147,0.0147,0,0,0.0161,0.0171,0.0175,0.0169,0.0176,0.0174,0.0176,0.018,0.0181,0.0165,0.0159,0.014,0.0127,0.0109,0.01,0.0071,0.0102,0.0073,0.0078,0.0074,0.0073,0.0073,0.0086,0.0087,0.0073,0.0073,0.0073,0,0.0166,0.017,0.0176,0.017,0.0164,0.0173,0.0165,0.0164,0.0157,0.0153,0.0157,0.0123,0.0112,0.0084,0.0076,0.0065,0.0083,0.0096,0.0072,0.0072,0.0072,0.0086,0.0087,0.0072,0.0072,0.0073,0.0073,0,0.0165,0.0166,0.0168,0.0156,0.0147,0.0147,0.0139,0.0137,0.0139,0.013,0.0112,0.0094,0.0083,0.0066,0.0067,0.0057,0.0077,0.0068,0.0089,0.007,0.0085,0.0087,0.0071,0.0071,0.0072,0.0072,0,0,0.0194,0.0171,0.0175,0.0164,0.0142,0.0139,0.012,0.0108,0.0109,0.0093,0.0083,0.0055,0.0068,0.006,0.0056,0.005,0.0059,0.0072,0.0072,0.0098,0.0078,0.0074,0.0076,0.0058,0.0058,0.0058,0.0089,0,0.0196,0.0188,0.0166,0.0147,0.0143,0.0123,0.0105,0.0089,0.0085,0.0074,0.0058,0.0054,0.006,0.0071,0.0062,0.0055,0.0065,0.0053,0.0083,0.0084,0.0092,0.0077,0.0058,0.0091,0.0091,0.0091,0.0092,0,0.0212,0.0201,0.0191,0.0153,0.0149,0.0133,0.0116,0.0099,0.0077,0.008,0.0072,0.0071,0.0062,0.0074,0.0072,0.0073,0.0093,0.0085,0.0086,0.0094,0.0083,0.0112,0.0095,0.0095,0.0094,0.0094,0.0094,0,0.0257,0.0222,0.0218,0.0204,0.0161,0.0154,0.0133,0.0108,0.0101,0.0101,0.0097,0.0088,0.0089,0.0099,0.0096,0.0102,0.0088,0.0086,0.0101,0.0101,0.0105,0.0105,0.0105,0.0105,0.0105,0.0105,0.0105,0,0.0281,0.0278,0.0244,0.0244,0.0229,0.0188,0.0181,0.0167,0.0144,0.0133,0.012,0.0118,0.0102,0.0087,0.0098,0.0099,0.0096,0.0111,0.0107,0.0096,0.0095,0.0106,0.0106,0.0106,0.0106,0.0106,0.0106,0,0.0329,0.0316,0.0305,0.0266,0.0257,0.025,0.0208,0.02,0.0185,0.0173,0.018,0.0143,0.0136,0.0107,0.0106,0.0101,0.01,0.011,0.0106,0.0101,0.0124,0.0122,0.0141,0.0141,0.0141,0.0141,0.0141,0,0.0342,0.0349,0.033,0.0317,0.03,0.0282,0.0267,0.0242,0.0232,0.0193,0.0186,0.0167,0.0151,0.0124,0.0106,0.0111,0.0115,0.012,0.0125,0.0132,0.0127,0.0125,0.0123,0.0141,0.0141,0.0142,0.0142,0,0.0341,0.0354,0.0336,0.0325,0.0314,0.0304,0.0283,0.0286,0.0257,0.0242,0.0212,0.0191,0.0162,0.0138,0.013,0.0136,0.0111,0.0122,0.0122,0.0126,0.0133,0.0127,0.0125,0.0142,0.0142,0.0142,0.0142,0,0.0322,0.0317,0.0304,0.0292,0.0289,0.0302,0.0306,0.0284,0.0275,0.0242,0.024,0.0198,0.0176,0.0153,0.0147,0.014,0.0154,0.0159,0.0158,0.0158,0.0143,0.0153,0.0172,0,0,0,0,0,0.0273,0.0266,0.0255,0.0247,0.026,0.0272,0.0285,0.0291,0.0287,0.0275,0.0257,0.024,0.021,0.0181,0.0181,0.0159,0.0154,0.0158,0.0161,0.0143,0.0143,0.0121,0,0,0,0,0,0,0.0235,0.0224,0.0234,0.0213,0.0219,0.0236,0.0263,0.0277,0.027,0.0264,0.0246,0.0237,0.0206,0.0207,0.0176,0.0172,0.0174,0.0142,0.0142,0.0143,0.0143,0.0143,0.012,0,0,0,0,0]}]]